Location: New Orleans
(29.9540°N, 90.0750°W)
Time: 20:30:22
(UTC-06:00)

N. Korean satellite - Visible Passes

Search period start: 24 January 2020 00:00
Search period end: 03 February 2020 00:00
Orbit: 454 x 507 km, 97.2° (Epoch: 24 January)

Date Brightness Start Highest point End Pass type
(mag) Time Alt. Az. Time Alt. Az. Time Alt. Az.
24 Jan 9.4 04:58:40 10° NE 05:01:16 19° E 05:03:53 10° SE visible
25 Jan 7.0 06:05:45 10° N 06:09:07 39° WNW 06:12:31 10° SW visible
25 Jan 10.3 18:11:02 10° WSW 18:11:59 11° W 18:12:57 10° WNW visible
26 Jan 6.6 05:40:04 10° NNE 05:43:41 82° ESE 05:47:20 10° S visible
27 Jan 8.4 05:14:54 10° NNE 05:18:11 32° E 05:21:30 10° SSE visible
28 Jan 9.8 04:50:32 10° ENE 04:52:37 15° E 04:54:42 10° SE visible
28 Jan 7.8 06:23:00 10° NNW 06:25:54 23° WNW 06:28:49 10° SW visible
29 Jan 6.7 05:56:58 10° N 06:00:30 53° WNW 06:04:06 10° SSW visible
29 Jan 9.9 18:01:20 10° SW 18:03:17 15° W 18:05:15 10° WNW visible
30 Jan 7.2 05:31:27 10° NNE 05:35:04 60° E 05:38:42 10° S visible
31 Jan 9.0 05:06:28 10° NE 05:09:32 25° E 05:12:36 10° SSE visible
01 Feb 10.2 04:42:46 10° ENE 04:43:56 11° E 04:45:06 10° ESE visible
01 Feb 7.4 06:14:05 10° NNW 06:17:18 30° WNW 06:20:33 10° SW visible
02 Feb 6.5 05:48:14 10° N 05:51:54 73° WNW 05:55:34 10° SSW visible
